Location: Street
(51.1247°N, 2.7429°W)
Time: 21:35:09
(UTC+00:00)

Altair - All Passes

Search period start: 05 December 2020 00:00
Search period end: 15 December 2020 00:00
Orbit: 1502 x 1682 km, 47.2° (Epoch: 04 December)

Date Brightness Start Highest point End Pass type
(mag) Time Alt. Az. Time Alt. Az. Time Alt. Az.
05 Dec - 00:20:53 10° W 00:29:35 48° SSW 00:38:14 10° SE night (unlit)
05 Dec - 02:26:31 10° W 02:32:29 20° SW 02:38:29 10° S night (unlit)
05 Dec - 17:45:24 10° S 17:52:59 28° SE 18:00:23 10° E visible
05 Dec - 19:47:10 10° SW 19:56:20 57° SSE 20:05:15 10° E visible
05 Dec - 21:51:13 10° W 22:00:29 71° S 22:09:35 10° ESE visible
05 Dec - 23:55:43 10° W 00:04:30 51° SSW 00:13:13 10° SE night (unlit)
06 Dec - 02:01:09 10° W 02:07:29 21° SW 02:13:52 10° S night (unlit)
06 Dec - 17:20:36 10° S 17:27:57 26° SE 17:35:08 10° E visible
06 Dec - 19:22:04 10° SW 19:31:13 55° SSE 19:40:07 10° E visible
06 Dec - 21:26:04 10° W 21:35:21 71° S 21:44:27 10° E visible
06 Dec - 23:30:33 10° W 23:39:24 53° SSW 23:48:11 10° SE visible
07 Dec - 01:35:49 10° W 01:42:29 23° SW 01:49:10 10° S night (unlit)
07 Dec - 16:55:49 10° S 17:02:56 24° SE 17:09:51 10° E visible
07 Dec - 18:56:59 10° SW 19:06:07 53° SSE 19:14:59 10° E visible
07 Dec - 21:00:54 10° W 21:10:13 71° S 21:19:19 10° E visible
07 Dec - 23:05:23 10° W 23:14:18 55° SSW 23:23:08 10° SE visible
08 Dec - 01:10:30 10° W 01:17:28 25° SW 01:24:27 10° S night (unlit)
08 Dec - 16:31:06 10° S 16:37:54 22° SE 16:44:32 10° E visible
08 Dec - 18:31:55 10° SW 18:41:00 51° SSE 18:49:50 10° E visible
08 Dec - 20:35:44 10° WSW 20:45:04 71° S 20:54:11 10° E visible
08 Dec - 22:40:13 10° W 22:49:12 57° SSW 22:58:05 10° SE visible
09 Dec - 00:45:13 10° W 00:52:28 27° SW 00:59:41 10° S night (unlit)
09 Dec - 16:06:25 10° S 16:12:53 20° SE 16:19:12 10° E daylight
09 Dec - 18:06:51 10° SW 18:15:54 49° SSE 18:24:41 10° E visible
09 Dec - 20:10:33 10° WSW 20:19:56 71° S 20:29:03 10° E visible
09 Dec - 22:15:03 10° W 22:24:06 59° SSW 22:33:01 10° SE visible
10 Dec - 00:19:57 10° W 00:27:26 29° SW 00:34:53 10° SSE night (unlit)
10 Dec - 15:41:48 10° S 15:47:52 19° SE 15:53:49 10° E daylight
10 Dec - 17:41:48 10° SW 17:50:49 47° SSE 17:59:32 10° E visible
10 Dec - 19:45:23 10° WSW 19:54:47 70° S 20:03:55 10° E visible
10 Dec - 21:49:52 10° W 21:58:59 61° SSW 22:07:57 10° ESE visible
10 Dec - 23:54:43 10° W 00:02:25 31° SW 00:10:03 10° SSE night (unlit)
11 Dec - 15:17:14 10° SSE 15:22:52 17° SE 15:28:22 10° E daylight
11 Dec - 17:16:47 10° SW 17:25:43 45° SSE 17:34:23 10° E visible
11 Dec - 19:20:13 10° WSW 19:29:39 69° S 19:38:48 10° E visible
11 Dec - 21:24:41 10° W 21:33:52 63° SSW 21:42:52 10° ESE visible
11 Dec - 23:29:28 10° W 23:37:23 33° SW 23:45:12 10° SSE visible
12 Dec - 14:52:47 10° SSE 14:57:52 16° SE 15:02:51 10° E daylight
12 Dec - 16:51:46 10° SW 17:00:38 43° SSE 17:09:13 10° E visible
12 Dec - 18:55:04 10° WSW 19:04:30 68° S 19:13:40 10° E visible
12 Dec - 20:59:30 10° W 21:08:45 64° SSW 21:17:47 10° ESE visible
12 Dec - 23:04:15 10° W 23:12:20 35° SW 23:20:19 10° SSE visible
13 Dec - 01:14:32 10° WSW 01:14:39 10° WSW 01:14:45 10° WSW night (unlit)
13 Dec - 14:28:26 10° SSE 14:32:52 14° SE 14:37:13 10° E daylight
13 Dec - 16:26:46 10° SSW 16:35:32 41° SE 16:44:03 10° E visible
13 Dec - 18:29:54 10° WSW 18:39:23 67° SSE 18:48:32 10° E visible
13 Dec - 20:34:19 10° W 20:43:37 66° SSW 20:52:41 10° ESE visible
13 Dec - 22:39:02 10° W 22:47:17 38° SW 22:55:25 10° SSE visible
14 Dec - 00:47:01 10° WSW 00:49:42 12° WSW 00:52:22 10° SW night (unlit)
14 Dec - 14:04:17 10° SSE 14:07:53 13° SE 14:11:26 10° ESE daylight
14 Dec - 16:01:47 10° SSW 16:10:28 38° SE 16:18:52 10° E daylight
14 Dec - 18:04:44 10° WSW 18:14:14 66° SSE 18:23:24 10° E visible
14 Dec - 20:09:08 10° W 20:18:30 67° SSW 20:27:35 10° ESE visible
14 Dec - 22:13:49 10° W 22:22:14 40° SW 22:30:30 10° SSE visible
